Location: Sternwarte-Kraichtal
(49.1689°N, 8.6996°E)
Time: 20:53:59
(UTC+02:00)

Vanguard 2 Rocket - Pass Details

Date: 26 May 2022
Orbit: 553 x 3323 km, 32.9° (Epoch: 02 July)

Event Time Altitude Azimuth Distance (km) Brightness Sun altitude
Rises 20:53:54 0° 267° (W) 5,700 12.1 2.1°
Reaches altitude 10° 21:03:29 10° 229° (SW) 3,659 10.2 0.8°
Maximum altitude 21:03:50 10° 227° (SW) 3,617 10.2 0.7°
Drops below altitude 10° 21:04:11 10° 224° (SW) 3,579 10.1 0.7°
Sets 21:10:56 0° 180° (S) 3,753 9.7 -0.2°
